map of BJV home
Great Circle Mapper logo
BJV - Airport
Location
City:  Bodrum, Turkey
Name:Milas
ICAO / IATA:LTFE / BJV

Details
Type:Airport (Aerodrome, Airfield)
Use:Public/Civil, International (customs port of entry)
Latitude:3715'02"N (37.250611)
Longitude:2739'52"E (27.664311)
Datum:WGS 1984
Elevation:21 ft (6 m)
Runways:1
Longest:9842 × 148 ft (3000 × 45 m), paved

Time
Time Zone:UTC+2 (DST+3)
Local Time:

Weather
METAR:LTFE 240850Z 13008KT 110V170 9999 SCT030 BKN090 22/15 Q1012 NOSIG
TAF:LTFE 232240Z 2400/2424 VRB02KT 9999 SCT030 BKN090 PROB30
TEMPO 2403/2406 -TSRA FEW020CB BKN030
BECMG 2406/2408 16014KT
TEMPO 2414/2418 -TSRA FEW020CB BKN030
BECMG 2416/2418 VRB02KT
BECMG 2418/2420 -TSRA FEW020CB BKN030

Related Locations
Nearby:
Farthest:NTAV: 11469 mi / 18458 km
Raivavae, Tubuai Islands, Austral Islands, PF

Find:

   beyond  
but within

Other Information
Maps:
NOTAMs:
Links:
Sources:

  
flag of Turkey   

Sectional Chart

Flight Planning
at skyvector.com

Satellite Image

Google Maps Satellite View

 

Copyright © 2004-2014 Karl L. Swartz. All rights reserved.
The Great Circle Mapper name and logo are trademarks of the Great Circle Mapper.
All other trademarks mentioned herein belong to their respective owners.
Please see credits for attibutions and further copyright information.

  Follow gcmap on Facebook Follow gcmap on Twitter

hCard Microformat

Geo Microformat